Location: Unspecified
(58.7730°N, 5.8460°E)
Time: 19:39:40
(UTC+02:00)

Resurs 1-4 Rocket - Visible Passes

Search period start: 22 August 2014 00:00
Search period end: 01 September 2014 00:00
Orbit: 800 x 815 km, 98.3° (Epoch: 21 August)

Date Brightness Start Highest point End Pass type
(mag) Time Alt. Az. Time Alt. Az. Time Alt. Az.
22 Aug 5.0 03:55:38 10° ENE 03:56:47 11° ENE 03:57:55 10° E visible
23 Aug 3.8 05:08:38 10° NNE 05:13:25 33° E 05:18:10 10° SSE visible
24 Aug 4.3 04:44:30 10° NE 04:48:43 24° E 04:52:55 10° SE visible
25 Aug 4.7 04:20:38 10° NE 04:23:57 17° E 04:27:15 10° ESE visible
26 Aug 5.0 03:57:30 10° ENE 03:59:04 11° ENE 04:00:38 10° E visible
26 Aug 3.1 05:35:08 10° NNE 05:40:16 50° E 05:45:23 10° S visible
27 Aug 3.7 05:10:51 10° NNE 05:15:40 35° E 05:20:29 10° SSE visible
28 Aug 4.3 04:46:41 10° NE 04:50:59 25° E 04:55:16 10° SE visible
29 Aug 4.7 04:22:46 10° NE 04:26:13 17° E 04:29:40 10° SE visible
30 Aug 4.9 03:59:28 10° ENE 04:01:22 12° ENE 04:03:16 10° E visible
30 Aug 3.0 05:37:21 10° NNE 05:42:31 52° E 05:47:41 10° S visible
31 Aug 3.7 05:13:03 10° NNE 05:17:56 36° E 05:22:48 10° SSE visible
